Weather History for Plattsburgh, NY

Change the Weather History Date:

Monday, June 9, 2014

  Actual Average Record
Temperature  
Mean Temperature 70 °F 63 °F  
Max Temperature 79 °F 74 °F 92 °F (1959)
Min Temperature 61 °F 52 °F 36 °F (1980)
Cooling Degree Days 5 2  
Month to date cooling degree days 19 11  
Year to date cooling degree days 32 19  
Since 1 June cooling degree days 19 11  
Growing Degree Days 21 (Base 50)    
Moisture  
Dew Point 57 °F    
Average Humidity 68    
Maximum Humidity 90    
Minimum Humidity 45    
Precipitation  
Precipitation 0.00 in - 0.73 in (1952)
Month to date precipitation 1.27  
Year to date precipitation 10.28  
Sea Level Pressure  
Sea Level Pressure 29.92 in    
Wind  
Wind Speed 7 mph (North)    
Max Wind Speed 15 mph    
Max Gust Speed 19 mph    
Visibility 10 miles    
Events      
T = Trace of Precipitation, MM = Missing Value Source: NWS Daily Summary

Daily Weather History Graph

Daily Weather History Graph

Search for Another Location

Airport:

Trip Planner

Search our weather history database for the weather conditions in past years. The results will help you decide how hot, cold, wet, or windy it might be!

Date:

Astronomy

Jun. 09, 2014 Rise Set
Actual Time 5:08 AM EDT 8:37 PM EDT
Civil Twilight 4:31 AM EDT 9:14 PM EDT
Nautical Twilight 3:43 AM EDT 10:03 PM EDT
Astronomical Twilight 2:41 AM EDT 11:05 PM EDT
Moon 4:48 PM EDT (6/9) 2:43 AM EDT (6/9)
Length of Visible Light 16h 42m
Length of Day
15h 29m
Waxing Gibbous, 85% of the Moon is Illuminated
Jun 9
Waxing Gibbous
Jun 13
Full
Jun 19
Last Quarter
Jun 27
New
Jul 5
First Quarter

Hourly Weather History & Observations

Time (EDT) Temp. Dew Point Humidity Pressure Visibility Wind Dir Wind Speed Gust Speed Precip Events Conditions
12:53 AM 63.0 °F 59.0 °F 87% 29.87 in 10.0 mi Calm Calm - N/A   Clear
1:53 AM 63.0 °F 59.0 °F 87% 29.85 in 10.0 mi NNW 10.4 mph - N/A   Clear
2:53 AM 64.0 °F 57.9 °F 80% 29.87 in 10.0 mi Calm Calm - N/A   Clear
3:53 AM 63.0 °F 57.9 °F 84% 29.87 in 10.0 mi NNW 3.5 mph - N/A   Clear
4:53 AM 63.0 °F 57.0 °F 81% 29.88 in 10.0 mi Calm Calm - N/A   Mostly Cloudy
5:53 AM 63.0 °F 57.0 °F 81% 29.91 in 10.0 mi NNW 5.8 mph - N/A   Clear
6:53 AM 64.0 °F 59.0 °F 84% 29.93 in 10.0 mi Calm Calm - N/A   Clear
7:53 AM 66.0 °F 57.9 °F 75% 29.95 in 10.0 mi NW 3.5 mph - N/A   Partly Cloudy
8:53 AM 69.1 °F 57.0 °F 65% 29.96 in 10.0 mi North 13.8 mph - N/A   Clear
9:53 AM 71.1 °F 59.0 °F 66% 29.97 in 10.0 mi NNE 10.4 mph - N/A   Partly Cloudy
11:53 AM 73.9 °F 60.1 °F 62% 29.96 in 10.0 mi NE 9.2 mph - N/A   Clear
12:53 PM 75.0 °F 60.1 °F 60% 29.96 in 10.0 mi NNE 10.4 mph - N/A   Clear
1:53 PM 75.9 °F 60.1 °F 58% 29.96 in 10.0 mi NE 8.1 mph - N/A   Mostly Cloudy
4:53 PM 79.0 °F 57.9 °F 48% 29.92 in 10.0 mi NE 8.1 mph - N/A   Clear
5:53 PM 79.0 °F 57.0 °F 47% 29.91 in 10.0 mi NE 8.1 mph - N/A   Clear
6:53 PM 79.0 °F 55.0 °F 44% 29.92 in 10.0 mi NNE 8.1 mph - N/A   Clear
7:53 PM 77.0 °F 55.0 °F 47% 29.92 in 10.0 mi NNE 6.9 mph - N/A   Clear
8:53 PM 73.9 °F 55.0 °F 52% 29.93 in 10.0 mi North 8.1 mph - N/A   Scattered Clouds
9:53 PM 73.0 °F 53.1 °F 49% 29.93 in 10.0 mi NNE 6.9 mph - N/A   Overcast
10:53 PM 72.0 °F 51.1 °F 48% 29.95 in 10.0 mi NW 3.5 mph - N/A   Overcast
11:53 PM 66.9 °F 55.9 °F 68% 29.94 in 10.0 mi Calm Calm - N/A   Overcast